Regional Weather Roundup
Issued by NWS

Home | Current Version | Previous Version | Graphics & Text | Print | Product List | Glossary Off
Versions: 1 2 3 4 5 6 7 8 9 10 11 12 13 14 15 16 17 18 19 20 21 22 23 24 25 26 27 28 29 30 31 32 33 34 35 36 37 38 39 40 41 42 43 44 45 46 47 48 49 50

000
ASUS43 KMPX 231001
RWRMN
WEATHER ROUNDUP FOR MINNESOTA
NATIONAL WEATHER SERVICE TWIN CITIES/CHANHASSEN MN
500 AM CDT WED MAY 23 2018


NOTE: "FAIR" INDICATES FEW OR NO CLOUDS BELOW 12,000 FEET WITH NO
SIGNIFICANT WEATHER AND/OR OBSTRUCTIONS TO VISIBILITY. N/A MEANS
CURRENT SKY AND/OR WEATHER CONDITIONS ARE NOT AVAILABLE.

MNZ060>063-068>070-231100-
   Twin Cities Metro

CITY           SKY/WX    TMP DP  RH WIND       PRES   REMARKS
TWIN CITIES    MOCLDY    63  59  87 SE8       30.09S
ST PAUL        MOCLDY    60  57  89 SE6       30.09F
CRYSTAL        FAIR      59  56  89 SE3       30.07F
BLAINE         FAIR      59  57  94 SE3       30.08F
LAKEVILLE      FAIR      57  57 100 CALM      30.09S
EDEN PRAIRIE   MOCLDY    63  58  83 SE7       30.08R
SOUTH ST PAUL  FAIR      60  58  95 CALM      30.10S
LAKE ELMO      FAIR      55  54  94 CALM      30.11S
$$
MNZ001>005-007-008-013>017-022>024-027-028-231100-
   Northwest Minnesota

CITY           SKY/WX    TMP DP  RH WIND       PRES   REMARKS
BEMIDJI        FOG       49  49  99 CALM      30.06R VSB 1/2
HALLOCK        FAIR      61  54  77 SE8       30.00S
ROSEAU         FAIR      57  54  88 CALM      30.03S
WARROAD        FAIR      55  52  88 CALM      30.04S
THIEF RVR FALL FAIR      59  54  83 SE7       30.03S
CROOKSTON      FAIR      59  54  82 SE8       30.01S
FOSSTON        FAIR      54  48  82 CALM      30.05R
DETROIT LAKES  FAIR      59  54  82 SE5       30.06R
MOORHEAD       FAIR      63  55  77 SE5       30.03R
PARK RAPIDS    FAIR      54  52  93 SE3       30.07R
MAHNOMEN       FAIR      60  54  80 SE7       30.03R
$$
MNZ006-009>011-018-025>026-231100-
   North Central Minnesota

CITY           SKY/WX    TMP DP  RH WIND       PRES   REMARKS
BAUDETTE       FAIR      53  52  96 SE3       30.04F
FLAG ISLAND    FAIR      61  54  77 CALM      30.03S
INTL FALLS     FAIR      45  45 100 CALM      30.06S
WASKISH          N/A     52  50  93 CALM      30.06R
BIG FORK       FAIR      46  46 100 CALM      30.07S
LONGVILLE      FAIR      46  46 100 CALM      30.08R FOG
GRAND RAPIDS   FAIR      48  48 100 SE3       30.10R FOG
CRANE LAKE     FAIR      41  39  93 CALM      30.09S
ORR            FAIR      48  46  93 CALM      30.06R
COOK           FAIR      48  46  93 CALM      30.09R
WALKER         FOG       51  51  99 CALM      30.07R VSB 1
$$
MNZ012-019>021-037-231100-
   Northeast Minnesota

CITY           SKY/WX    TMP DP  RH WIND       PRES   REMARKS
DULUTH         FAIR      52  50  93 CALM      30.09S
ELY            FAIR      48  46  93 CALM      30.09S
HIBBING        FAIR      43  43 100 CALM      30.08R FOG
EVELETH        FAIR      46  45  93 CALM      30.10R
DULUTH HARBOR  FAIR      57  55  94 SW5       30.09R
TWO HARBORS    FAIR      61  52  72 CALM      30.07R
SILVER BAY     FAIR      50  50 100 CALM      30.06S
GRAND MARAIS     N/A     47  44  90 CALM      30.04S
G MARAIS ARPRT FAIR      46  39  76 N3        30.10S
$$
MNZ029>031-032-039>041-046>048-054>057-064-231100-
   West Central Minnesota

CITY           SKY/WX    TMP DP  RH WIND       PRES   REMARKS
FERGUS FALLS   MOCLDY    64  55  72 SE12      30.00R
WHEATON        CLOUDY    64  55  72 SE13G18   30.03R
MORRIS         CLOUDY    63  57  82 SE12      30.02S
ALEXANDRIA     FAIR      62  56  80 SE9       30.07R
ELBOW LAKE     FAIR      64  57  79 SE10      30.04R
WADENA         FAIR      54  54 100 E3        30.07R
GLENWOOD       FAIR      61  57  88 SE8       30.06S
APPLETON       MOCLDY    64  57  77 SE9       30.02R
BENSON         CLOUDY    64  57  77 S7        30.05S
ORTONVILLE     MOCLDY    63  57  82 SE8       30.00F
MADISON        MOCLDY    66  59  77 SE7       30.00F
WILLMAR        FAIR      61  57  88 E9        30.06F
$$
MNZ033>034-036-042>043-049>051-058-059-231100-
   Central Minnesota

CITY           SKY/WX    TMP DP  RH WIND       PRES   REMARKS
ST CLOUD       FAIR      59  56  89 SE5       30.07S
SAUK CENTRE    FAIR      58  56  92 E6        30.07R
PAYNESVILLE    FAIR      61  59  92 SE8       30.06S
PINE RIVER     FAIR      46  45  93 CALM      30.11R FOG
BRAINERD       FAIR      52  49  89 CALM      30.09R FOG
STAPLES        FAIR      54  54 100 SE5       30.08R
LONG PRAIRIE   FAIR      55  54  94 E3        30.08R
LITTLE FALLS   FAIR      55  55 100 E3        30.08R
LITCHFIELD     FAIR      61  61 100 E5        30.06F
BUFFALO        FAIR      61  56  83 E3        30.08S
MAPLE LAKE     FAIR      63  59  87 CALM      30.08S
HUTCHINSON     FAIR      61  59  93 E9        30.07S
$$
MNZ037-044-045-052-053-231100-
   East Central Minnesota

CITY           SKY/WX    TMP DP  RH WIND       PRES   REMARKS
PRINCETON      FAIR      55  55 100 CALM      30.09S
MORA           FAIR      46  45  93 CALM      30.11S FOG
CAMBRIDGE      FAIR      61  54  77 CALM      30.09S
RUSH CITY      FAIR      53  52  97 CALM      30.10S FOG
MOOSE LAKE     FOG       46  45  93 CALM      30.08S VSB 1/2
HINCKLEY       FAIR      45  45 100 CALM      30.10R FOG
CLOQUET        FAIR      48  46  93 CALM      30.10R
MCGREGOR       FAIR      46  45  93 CALM      30.09R
$$
MNZ071>073-080-081-089-090-097-098-231100-
   Southwest Minnesota

CITY           SKY/WX    TMP DP  RH WIND       PRES   REMARKS
MONTEVIDEO     MOCLDY    63  57  82 SE6       30.03R
GRANITE FALLS  CLOUDY    65  60  83 E5        30.04R
CANBY          CLOUDY    64  61  90 SE5       30.01F
MARSHALL       TSTM      64  62  93 S14       30.02S
REDWOOD FALLS  CLOUDY    64  61  90 E6        30.02R
OLIVIA         CLOUDY    63  59  88 SE10      30.04R
PIPESTONE      MOCLDY    64  63  94 SE13      30.02S
WINDOM         CLOUDY    63  46  55 E8        30.05F
WORTHINGTON    CLOUDY    63  59  87 SE9       30.07R
JACKSON        CLOUDY    59  59 100 E12       30.09R
TRACY          CLOUDY    66  64  93 S3        30.03S THUNDER
SLAYTON        MOCLDY    64  61  90 SE12      30.04S
$$
MNZ065>067-074>077-082>085-091>093-231100-
   South Central Minnesota

CITY           SKY/WX    TMP DP  RH WIND       PRES   REMARKS
MANKATO        CLOUDY    65  60  84 S7        30.07S
NEW ULM        DRIZZLE   64  61  88 SW10      30.06R
ST JAMES         N/A     63 N/A N/A SW3       30.09R
FAIRMONT       LGT RAIN  62  60  93 SE7       30.08S
GLENCOE        FAIR      62  62 100 E7        30.07R
FARIBAULT      CLOUDY    63  57  82 CALM      30.09S
OWATONNA       FAIR      63  59  88 SE9       30.09S
WASECA         LGT RAIN  63  59  88 S6        30.10R
ALBERT LEA     RAIN      61  59  94 S7        30.11R
$$
MNZ078>079-086>088-094>096-231100-
   Southeast Minnesota

CITY           SKY/WX    TMP DP  RH WIND       PRES   REMARKS
ROCHESTER      CLOUDY    58  57  97 SE9       30.12R
RED WING       FAIR      57  55  94 CALM      30.10S FOG
STANTON        FAIR      63  58  83 SE7       30.09R
DODGE CENTER   MOCLDY    59  57  94 SE8       30.11S
WINONA         FOG       54  54 100 CALM      30.10F VSB 1/2
AUSTIN         MOCLDY    63  57  82 S5        30.11R
PRESTON        CLOUDY    58  56  92 SE5       30.13S
$$
ABBREVIATIONS USED IN REMARKS
   TC - TEMPERATURES IN CELSIUS
  WCI - WIND CHILL INDEX
   HX - HEAT INDEX
  VSB - VISIBILITY
$$



USA.gov is the U.S. government's official web portal to all federal, state and local government web resources and services.